Showing default

MIDAS 6 (FTV 1169), 574

Orbit data source: Space-Track

MIDAS 6 (FTV 1169), 574 is a payload satellite owned by USAF SSD (US) in LEO that was launched on Thu, 09 May 1963 UTC via an ATLAS AGENA B launch vehicle from the Air Force Western Test Range (AFWTR). Payload-class satellites include a variety of spacecraft equipped with specific instruments for various scientific and technological missions. These include communications satellites like Starlink; space stations such as the ISS; scientific satellites like the Hubble; Earth observation satellites from companies like Planet Labs, Umbra, and HawkEye 360; GPS; miniature CubeSats for education and research; and military/defense satellites.

Loading next visibility...
Identifier
574, 1963-014A
Orbit
LEO
Country
Flag of USUS
Related business
Manufacturer
LMSC
Mission
Spacecraft
Bus & Motor
MIDAS, Unknown motor
Mass
~1,540 kg wet, ~840 kg dry
Launch date (UTC)
1963-05-09 (63 years ago)
Launch vehicle
ATLAS AGENA B
Launch site
Air Force Western Test Range (AFWTR)
Object type
Payload
Rocket body
Debris
Shape & HBR
Unknown
Radar Cross Section
Large (>1 m²)

Expand to show TLE details & history
Last TLE update: 12 hours ago

TLE from 12 hours ago
0 MIDAS 6 (FTV 1169)
1 00574U 63014A   25351.11459338  .00000020  00000-0  82243-2 0  9993
2 00574  87.3429 212.9683 0030824 297.1012  62.6700  8.65276750202035
Epoch: 2025-12-17T02:45Z
TLE epoch observation values (Epoch: 2025-12-17T02:45:00.868Z)
Latitude
0.00005°
Longitude
85.72559°
Altitude
3,632.188 km
Speed
6.315 km/s
True Right ascension
14h 11m 52s
True Declination
0° 00' 00"
Sunlit
Object was in daylight at epoch
Visualization orbit readout
Latitude
Unknown
Longitude
Unknown
Altitude
Unknown
Speed
Unknown
Apparent Right ascension
Unknown
Apparent Declination
Unknown
Sunlit
N/A
Visualization observer readout
Local Sidereal Time
14:00:10
Azimuth
Unknown
Elevation
Unknown
Doppler factor
Unknown
Orbital elements
Apogee altitude
3,672.82 km
Perigee altitude
3,611.049 km
Semi-major axis
10,020.072 km
Eccentricity
0.00308
Inclination
87.3429°
RAAN
212.9683°
Arg. of periapsis
297.1012°
True anomaly
62.98434°
Mean anomaly
62.67°
Eccentric anomaly
62.82712°
Mean motion
2.1639 °/min
Orbital period
166.37 mins
BSTAR
0.0082243
Loading maneuver chart data...
Computing Atmospheric mass density...

Documentation

Showing up to 5 results
|